Wind_Speed
10 10 11 12 12 13 13 14 16 16 13 11 10 7 4 7 5 2 0 2 4 5 6 6 7 7 5 4 1 2 2 5 2 4 5 4 2 1 0 1 1 1 2 3 2 1 3 4 3 1 3 7 7 5 3 2 3 4 5 5 5 3 2 4 5 2 5 5 5 3 2 0 2 1 4 5 4 5 4 5 5 5 6 5 5 3 3
10 10 10 11 12 12 12 13 14 15 15 14 12 10 9 11 9 2 1 2 5 6 6 6 6 6 5 4 3 1 3 5 2 1 5 4 1 2 2 2 1 0 2 0 1 0 2 4 3 3 2 7 5 3 3 2 3 3 4 5 4 3 2 3 6 3 4 5 2 2 2 0 0 3 5 4 4 6 5 5 4 4 5 6 5 5 3
10 10 10 11 12 11 11 11 12 13 14 13 13 12 11 11 9 6 4 4 7 9 9 7 6 6 5 6 5 4 4 5 5 5 3 3 1 1 1 3 3 2 2 1 1 1 2 3 2 2 1 5 4 2 3 0 4 9 8 6 5 3 4 4 5 4 2 2 1 1 2 2 2 4 4 3 4 5 4 5 4 3 6 7 5 4 6
11 11 11 10 11 11 10 10 11 11 12 12 12 11 9 6 5 6 7 8 10 12 14 11 8 7 6 5 6 7 5 5 5 7 4 1 1 2 1 2 4 3 1 1 2 3 4 3 2 2 1 3 4 3 2 3 7 11 7 4 3 3 4 4 3 4 4 3 3 3 4 5 3 3 5 4 4 4 4 4 4 4 7 6 3 7 10
13 12 11 11 11 11 11 10 10 10 11 11 11 9 7 5 5 4 3 6 9 11 13 13 10 7 7 4 3 7 7 4 5 6 4 2 3 5 3 1 3 3 2 2 3 3 5 4 4 4 3 3 5 2 2 3 8 6 2 2 1 4 4 2 2 4 4 3 3 3 4 4 3 4 5 3 4 5 3 4 5 6 6 5 5 12 12
15 14 13 12 12 12 11 10 9 9 9 10 10 8 5 5 6 6 4 2 6 6 7 10 11 10 8 4 3 7 9 6 5 5 5 5 4 4 4 4 4 4 5 3 3 3 4 3 2 5 3 4 4 2 3 4 7 3 3 4 2 4 5 1 1 4 4 2 2 2 3 3 3 4 4 4 5 4 2 4 7 6 5 7 10 14 13
15 15 15 13 12 11 11 11 10 9 8 8 8 6 6 8 8 7 7 7 9 8 8 9 10 10 9 6 5 7 8 8 6 5 5 5 4 5 4 4 7 6 7 4 3 3 3 2 2 5 3 2 3 2 2 5 8 3 3 2 1 2 3 2 2 4 5 5 4 3 3 4 4 5 6 5 3 2 3 4 7 6 6 9 11 13 14
14 15 15 14 12 11 10 10 10 9 8 7 5 4 7 8 7 8 11 11 12 12 10 9 8 7 7 6 7 7 7 9 7 6 6 4 4 6 6 5 8 7 8 7 5 4 3 2 2 3 4 2 2 3 3 3 6 4 3 2 2 1 1 3 3 5 6 7 7 5 4 6 6 6 6 2 3 4 1 2 4 4 6 8 9 11 12
14 14 15 15 12 10 9 9 9 9 8 5 3 5 8 7 7 8 9 8 10 11 9 8 7 6 6 6 6 7 7 9 8 6 7 6 5 6 7 7 7 7 6 8 6 4 2 2 3 4 5 5 4 3 3 2 4 4 3 3 3 2 2 2 2 5 6 5 8 6 5 7 9 9 7 4 4 2 1 2 3 4 3 5 6 7 8
16 15 15 15 13 11 9 8 8 9 8 5 5 6 8 7 6 6 6 6 10 11 8 8 7 6 7 8 8 8 9 10 9 6 7 8 8 6 6 6 5 5 5 5 5 4 2 3 4 4 5 7 6 4 4 3 3 4 4 4 3 4 4 4 3 5 5 3 6 4 4 6 7 6 7 9 6 5 5 5 6 7 6 3 4 6 6
16 16 16 16 14 11 10 9 9 9 9 7 7 7 9 9 6 6 7 6 9 12 9 6 7 7 10 12 10 10 10 11 10 7 5 7 8 7 5 4 4 4 1 2 3 3 2 2 4 6 8 9 8 8 7 6 5 4 3 4 4 4 5 5 4 5 5 2 4 3 5 6 2 1 5 9 8 8 7 7 9 8 7 7 8 8 8
17 17 16 16 15 13 11 9 9 10 10 10 7 4 8 10 7 6 7 5 7 10 8 7 10 9 11 14 13 11 11 12 11 10 7 6 8 9 6 4 4 2 3 6 6 5 1 4 6 8 10 10 10 10 9 8 7 7 6 5 4 5 5 5 4 4 5 6 3 4 5 3 3 5 6 6 6 6 6 7 9 9 9 10 11 10 10
17 17 16 15 15 14 12 10 10 11 11 11 8 6 8 9 5 5 8 6 6 9 8 10 15 15 14 15 14 12 12 12 11 10 10 8 6 6 6 6 6 3 4 4 3 2 2 4 5 7 8 9 9 9 10 10 8 8 8 7 5 4 4 4 4 4 5 5 4 4 3 4 8 7 6 5 4 4 4 7 8 9 9 10 9 9 9
17 17 16 15 15 15 14 13 12 12 12 12 11 10 11 9 6 6 7 6 6 9 10 11 12 13 15 16 12 11 11 12 11 9 9 8 7 7 8 8 5 4 5 4 4 3 3 4 4 5 6 6 6 7 9 10 10 10 9 8 6 5 4 4 4 4 4 5 5 6 5 3 7 7 6 5 3 2 2 4 7 8 9 9 7 6 6
16 16 16 16 16 16 16 14 13 13 13 13 12 10 10 10 11 10 8 6 7 9 11 11 10 11 13 14 11 9 9 10 10 8 6 7 7 8 10 9 6 5 5 5 5 4 4 4 4 4 5 5 5 6 6 7 8 10 9 8 7 6 5 5 4 4 4 5 5 5 7 5 4 7 7 6 4 2 1 3 6 8 11 11 7 4 4
15 15 15 15 15 16 17 16 14 14 14 13 13 10 8 11 12 11 9 8 7 7 9 10 11 14 12 12 10 9 9 8 6 5 5 8 10 10 9 9 8 7 8 7 6 5 4 5 5 5 5 6 6 5 5 4 5 8 8 8 8 8 7 5 5 5 4 5 6 5 5 3 5 10 9 7 6 3 0 4 5 3 8 11 7 3 3
14 14 14 14 15 16 17 17 15 15 15 14 13 8 6 10 12 10 10 9 9 12 16 15 15 13 9 8 8 10 12 10 8 8 6 8 12 12 11 10 10 10 10 7 5 5 5 5 5 5 6 7 7 6 6 5 5 7 8 8 9 8 6 5 6 6 6 6 6 4 5 4 5 11 11 9 8 4 1 4 2 3 6 8 6 4 4
13 13 13 14 15 15 16 17 16 15 14 14 13 9 7 11 14 11 10 10 10 14 19 18 15 13 9 7 9 9 11 10 9 9 8 8 12 14 14 12 10 10 11 7 4 5 6 5 6 6 6 7 7 6 5 5 6 7 9 8 8 7 6 5 6 7 7 7 6 5 6 3 6 13 13 12 9 3 3 2 2 4 4 5 4 4 5
12 13 13 14 14 14 15 16 16 15 14 14 13 8 5 8 14 12 9 10 10 13 16 14 12 12 12 12 13 12 11 10 10 8 6 7 10 14 14 12 10 9 10 8 5 5 6 6 6 5 6 7 7 5 5 5 5 6 9 9 7 6 6 6 7 6 6 7 6 6 5 2 9 14 15 12 6 2 2 1 2 3 2 1 3 5 5
12 13 14 14 14 14 15 16 16 15 14 13 12 9 7 9 13 12 10 10 10 15 18 15 12 12 10 11 12 12 10 11 12 10 8 8 9 11 10 8 9 9 8 7 6 5 5 6 6 5 6 6 5 4 6 8 8 8 8 8 7 7 5 6 6 6 6 6 6 7 6 5 15 15 10 8 5 2 5 1 3 3 3 4 5 6 6
13 14 14 14 14 14 15 16 15 15 14 12 11 8 7 8 9 11 10 10 9 13 14 11 10 13 11 9 11 11 10 9 9 8 10 12 9 4 5 7 10 7 5 6 6 5 5 6 5 5 5 5 3 3 5 6 8 9 9 7 6 7 7 6 6 6 6 6 5 3 2 8 19 14 6 9 12 5 5 4 6 6 5 5 6 7 8
14 15 15 15 14 14 15 16 15 15 13 12 10 7 6 4 7 10 9 10 12 17 19 15 13 16 18 15 13 13 12 11 11 10 11 14 14 11 7 11 15 12 9 8 7 5 5 6 5 5 6 6 5 5 6 5 5 7 9 7 5 4 5 2 3 5 5 5 3 3 6 13 18 13 4 5 10 9 7 6 8 8 8 7 8 8 7
16 16 16 15 14 14 15 15 15 14 13 11 10 10 10 8 4 4 7 11 14 19 23 22 20 20 21 22 21 19 18 18 17 14 11 10 11 14 14 10 11 11 11 10 8 7 6 6 6 5 6 6 6 6 7 7 5 6 7 8 6 6 3 2 1 4 5 7 7 4 3 8 14 14 10 8 8 9 8 9 10 10 9 9 9 9 9
18 17 16 15 14 13 14 14 14 14 13 12 11 12 12 10 8 5 6 10 12 14 16 18 20 20 20 21 21 20 21 24 23 19 16 12 9 10 11 8 3 5 5 3 4 6 3 3 4 4 4 5 6 6 6 6 6 6 6 6 7 11 10 5 4 6 5 4 6 7 6 6 8 11 12 12 11 11 11 12 12 12 11 10 10 10 10
18 17 17 15 14 13 13 13 14 13 12 11 11 12 11 9 7 6 5 7 10 11 10 11 14 16 16 18 19 17 16 19 20 20 21 21 18 14 9 8 6 7 7 6 4 4 3 3 4 5 4 4 5 5 5 6 5 5 6 6 4 6 10 8 7 7 7 6 7 9 9 8 9 11 12 13 14 13 12 13 13 13 12 12 11 12 12
17 17 16 14 13 12 11 12 13 13 11 10 10 10 11 11 9 8 7 6 9 10 9 11 13 12 11 13 17 16 13 13 15 17 18 21 22 19 14 10 9 9 9 7 6 6 5 4 4 5 4 4 4 4 6 6 6 4 4 2 3 3 4 5 5 6 7 8 10 12 13 13 14 14 12 12 14 13 11 11 11 12 12 12 13 13 13
17 16 15 14 12 11 10 10 11 11 11 10 9 8 9 11 11 11 9 5 5 7 8 9 11 12 11 11 12 13 14 15 16 16 16 17 19 18 15 13 12 11 10 9 8 7 6 6 5 6 7 8 7 6 6 7 7 6 5 4 3 3 4 5 5 5 6 6 6 7 7 8 10 9 8 9 9 9 10 11 11 12 12 13 13 14 14
17 16 14 13 11 10 9 8 8 9 9 9 8 7 7 8 10 13 13 11 8 7 7 11 15 16 14 11 10 11 13 14 14 15 16 16 17 18 16 15 15 14 12 11 9 8 7 7 7 9 10 11 10 7 7 8 8 6 6 6 7 7 6 5 5 6 7 8 11 13 11 9 10 11 11 12 10 9 10 11 12 13 14 14 15 16 16
17 17 15 13 11 9 8 7 6 7 7 7 5 5 6 6 7 10 13 12 12 10 9 13 17 16 12 9 9 10 13 14 14 15 16 16 17 19 19 17 16 15 15 15 12 10 9 10 12 13 10 7 6 5 6 7 6 6 9 12 14 13 13 12 12 11 12 15 18 17 15 13 13 14 15 15 14 13 13 14 14 15 15 15 16 17 17
18 18 16 13 11 10 8 6 5 5 5 4 3 4 6 6 7 8 9 8 9 8 6 7 8 11 14 14 12 9 10 14 15 15 16 17 18 18 19 19 18 16 16 16 14 12 11 11 14 16 14 10 6 4 5 7 7 7 11 15 17 17 17 18 17 15 16 18 19 18 17 17 17 18 18 18 18 18 18 17 17 17 16 16 15 16 16
19 18 16 14 12 11 9 7 6 6 5 3 2 5 7 5 5 6 6 6 7 7 5 5 8 13 16 18 15 12 11 13 15 16 15 16 18 18 18 19 19 17 18 17 17 16 14 11 12 14 17 17 12 6 6 8 7 7 10 13 14 14 14 15 16 15 16 17 18 18 18 19 19 19 20 21 20 19 18 19 18 18 18 18 17 17 17
19 18 16 14 12 11 10 8 7 7 5 4 6 8 8 6 4 3 3 5 8 7 3 3 7 8 8 11 15 16 15 14 14 15 15 15 16 17 18 19 19 18 19 18 16 14 14 14 14 14 16 16 12 7 7 9 7 8 13 17 16 15 15 15 14 15 16 16 16 16 16 18 19 19 19 20 19 17 17 18 18 18 18 18 18 18 18
20 18 16 14 13 12 11 10 8 8 8 8 9 10 11 10 8 5 2 4 8 8 5 3 3 4 5 10 13 13 16 15 13 14 15 14 15 15 16 18 19 18 18 17 13 12 14 15 14 14 15 16 11 6 7 10 10 13 19 22 20 19 19 18 17 18 18 18 17 17 17 19 20 20 19 19 18 17 18 18 17 17 17 17 17 18 17
20 18 16 15 13 12 12 11 9 9 10 9 8 8 10 11 10 8 5 6 7 7 7 5 3 3 6 10 12 6 13 15 13 13 12 12 14 15 14 15 16 15 15 16 15 13 13 14 13 11 12 14 13 8 7 10 14 19 21 21 21 20 20 20 20 20 20 20 20 20 20 21 21 20 19 19 19 19 20 19 18 17 18 18 18 18 18
21 20 18 15 12 11 12 12 10 10 10 9 8 9 9 9 9 7 7 9 8 5 6 7 5 3 4 5 7 6 10 12 12 12 11 12 14 15 14 13 11 10 10 12 13 11 9 11 12 10 9 10 10 8 6 10 17 20 20 20 20 20 19 19 19 19 19 19 19 19 19 19 19 19 19 19 19 19 20 20 20 20 20 20 20 20 20
22 21 18 14 11 11 13 13 13 13 12 10 10 10 10 9 8 7 8 11 11 7 4 6 7 5 4 3 4 5 6 9 12 12 12 11 11 14 14 10 7 10 12 12 10 9 9 12 11 8 7 8 8 8 10 15 19 20 20 20 20 19 19 18 18 18 18 18 18 19 19 19 19 19 19 19 19 19 19 19 19 19 20 20 21 21 21
25 22 18 13 11 12 13 14 15 14 12 10 8 7 7 8 7 6 9 12 14 12 8 5 5 7 8 6 4 5 4 6 10 11 12 11 8 9 9 6 3 7 10 9 8 9 12 14 11 7 7 10 11 12 15 18 19 20 20 20 19 18 18 18 18 18 18 18 19 20 20 20 21 21 20 19 20 19 19 19 19 18 19 20 21 21 21
26 21 17 14 12 10 10 12 14 13 10 8 7 5 6 7 6 5 7 10 11 13 13 8 7 10 10 8 8 7 6 6 7 5 6 10 7 6 6 5 4 5 5 5 9 13 12 9 8 7 8 13 17 18 18 18 17 19 19 19 18 18 18 18 17 17 17 17 17 18 18 18 19 19 18 19 19 19 19 18 18 18 19 20 21 22 22
24 20 17 15 15 12 9 8 9 9 8 8 7 5 4 5 5 4 7 8 8 10 12 11 12 14 12 7 8 10 8 7 7 7 2 4 3 3 6 5 4 5 4 4 9 14 9 5 5 7 8 11 15 18 19 19 20 21 20 19 19 18 18 18 17 16 16 16 16 15 16 17 17 17 17 17 17 17 17 17 17 18 19 21 21 22 21
21 19 17 16 17 16 13 8 7 8 8 8 6 4 4 6 5 4 6 7 6 9 12 12 13 17 17 11 8 7 7 6 4 3 3 5 7 4 3 4 3 5 5 5 8 12 8 5 6 7 7 8 12 16 19 21 23 22 21 20 19 19 18 17 16 14 14 15 15 15 16 17 18 19 19 19 19 19 19 18 18 19 19 20 20 21 21
22 19 17 16 16 17 14 10 10 10 8 6 4 3 3 5 6 5 5 5 4 7 11 13 12 13 17 18 14 9 7 7 5 3 2 5 8 7 2 2 3 2 4 5 7 8 6 5 6 7 7 8 12 15 17 20 20 18 15 15 15 14 12 12 11 12 13 14 14 15 16 16 17 17 18 17 18 19 19 19 19 20 20 20 20 19 19
21 19 17 14 14 15 13 10 8 7 5 4 4 4 3 4 6 6 6 6 5 5 10 14 12 11 14 19 18 12 8 7 5 2 1 2 5 4 2 2 4 3 4 5 5 5 4 6 7 7 7 9 12 14 16 15 15 13 12 10 9 7 7 9 12 13 14 15 16 16 16 15 15 16 16 17 18 18 18 19 19 20 21 21 20 20 20
18 19 15 11 10 12 11 8 7 6 3 2 4 4 3 5 6 5 5 7 8 7 8 9 7 6 9 14 15 12 9 7 5 3 2 2 3 3 1 2 3 3 4 6 4 3 4 6 6 7 9 12 13 14 17 16 14 12 9 7 6 6 10 13 14 15 16 16 17 17 16 16 16 16 17 18 19 19 19 19 19 20 20 20 20 21 21
17 17 13 9 7 8 6 5 7 8 5 4 5 5 5 6 6 5 5 6 7 8 9 9 7 5 7 10 11 8 7 6 5 4 3 3 2 1 2 3 4 4 5 5 3 3 5 6 6 9 12 13 12 12 15 13 11 10 10 9 9 11 13 14 14 16 16 16 16 16 17 17 18 18 18 18 19 20 20 20 19 20 20 19 20 21 21
16 13 10 6 5 6 4 4 6 7 6 5 5 5 5 6 7 7 8 8 7 7 9 13 11 8 8 9 8 6 5 6 6 4 3 2 2 2 3 3 3 3 3 2 3 5 6 6 7 12 16 15 13 14 16 13 10 10 11 11 11 13 14 14 16 16 16 15 16 16 16 16 17 18 19 19 19 19 20 20 19 19 19 19 20 21 21
15 12 9 4 3 6 6 4 4 5 5 6 8 9 9 9 9 9 9 11 12 11 11 14 14 12 11 11 7 6 8 8 5 4 4 3 2 3 4 3 3 2 3 4 6 8 7 6 9 15 16 12 10 13 14 10 6 6 6 7 9 11 13 14 15 14 15 16 17 16 16 16 17 19 19 19 18 19 19 19 19 19 18 19 19 19 20
13 11 8 3 2 5 7 6 6 7 8 10 14 16 15 14 14 13 12 12 12 10 9 11 12 10 11 11 8 6 8 9 5 5 6 4 2 3 4 3 3 3 4 6 7 7 6 8 12 16 16 12 11 12 10 6 4 6 7 8 10 12 13 13 13 14 14 15 16 16 16 16 17 19 19 19 19 19 19 19 19 18 19 19 19 19 19
11 8 6 4 2 4 7 9 11 13 14 15 16 17 17 16 15 15 15 12 8 5 5 8 7 5 6 10 8 5 6 8 6 5 7 5 3 3 3 3 4 5 5 7 7 6 6 10 15 19 18 15 13 11 9 6 7 8 8 8 9 9 10 11 12 13 14 14 15 16 17 18 19 20 20 20 20 20 20 20 20 20 20 20 20 20 20
12 7 6 5 5 7 11 14 13 13 16 18 17 14 14 15 16 15 14 11 10 8 9 10 8 4 3 6 6 4 5 6 5 4 5 5 4 3 4 5 6 6 6 5 6 7 9 12 15 16 15 12 10 9 9 9 7 4 4 6 7 8 9 11 13 13 15 16 17 18 19 20 20 20 20 21 21 21 21 21 21 21 21 21 21 21 21
14 9 8 9 9 9 11 13 11 10 14 18 18 15 13 13 15 15 13 9 8 9 10 10 9 6 4 4 3 3 4 5 4 3 5 6 4 4 5 6 5 5 4 5 6 10 14 13 11 11 9 7 7 9 10 9 5 3 3 6 9 11 13 16 17 17 17 18 19 20 21 21 21 21 20 21 21 21 21 21 21 21 22 22 22 22 22
11 9 11 13 13 11 11 11 8 7 9 13 15 14 14 14 14 12 10 9 8 8 8 8 8 5 4 4 4 3 4 5 4 5 6 6 5 5 6 7 5 4 6 8 11 13 13 8 5 7 8 8 9 9 8 7 6 6 7 8 11 14 16 17 18 18 18 18 19 20 20 20 20 20 20 20 20 20 21 22 21 21 22 23 22 22 22
8 9 11 13 16 17 18 16 12 10 10 10 11 11 12 11 11 10 10 10 9 8 8 8 7 5 4 5 5 4 3 4 5 6 7 6 5 6 7 8 8 9 11 13 13 10 7 8 9 6 5 6 9 10 8 7 7 8 9 10 13 15 16 17 17 18 18 18 19 20 20 20 21 21 20 20 20 20 21 21 21 22 23 24 22 21 21
Wind_Direction
318 325 329 328 330 331 334 343 345 343 347 346 340 341 307 266 257 146 101 278 210 222 254 245 246 249 247 278 317 88 257 246 186 152 197 240 279 193 178 80 107 324 16 14 334 295 294 314 354 25 84 80 77 87 70 322 271 296 334 54 60 349 263 265 285 204 145 122 97 86 78 92 201 144 35 8 1 6 341 317 329 317 306 322 320 317 83
316 324 330 329 330 331 331 341 347 346 349 349 347 345 323 303 295 253 206 264 214 218 244 240 242 247 240 258 272 254 260 258 270 190 200 209 249 245 219 121 121 60 90 56 294 124 287 306 332 326 37 92 93 83 93 289 309 18 21 17 8 317 288 297 295 262 147 126 130 147 126 302 177 76 52 30 9 358 334 306 287 282 334 358 321 305 37
312 322 330 329 330 331 330 337 344 347 350 348 342 338 325 309 290 250 224 223 212 223 247 264 287 284 259 250 252 246 242 253 288 302 259 211 210 262 232 135 130 109 102 140 232 186 255 289 290 289 32 103 122 102 107 309 15 54 51 2 337 315 313 316 312 319 359 49 1 16 23 352 55 57 36 30 19 359 337 317 293 291 351 349 314 320 355
308 315 323 326 330 333 330 333 338 345 350 345 337 329 319 307 279 238 211 199 208 232 256 271 289 293 278 259 248 250 238 209 238 275 286 262 266 300 335 127 134 123 103 168 218 208 218 262 282 247 222 102 111 130 159 121 73 59 40 354 322 294 287 286 298 322 342 14 24 14 349 342 11 13 350 357 355 335 323 310 301 335 336 312 347 12 344
302 307 313 318 325 330 330 330 332 340 348 346 337 322 294 284 293 279 224 200 211 229 244 249 250 259 275 277 231 244 249 203 185 223 248 276 260 256 261 230 160 150 168 231 243 217 206 222 277 273 233 109 99 129 243 129 99 68 358 201 224 283 266 222 233 280 300 344 4 351 335 331 334 330 328 325 307 306 318 295 296 331 323 280 339 357 336
296 300 305 310 316 322 326 325 325 334 347 349 342 323 278 271 290 308 342 279 231 228 242 252 250 244 252 265 236 238 246 227 171 186 241 270 254 235 238 249 239 186 170 210 246 240 232 210 237 265 232 128 117 167 235 165 125 102 253 187 152 292 278 159 161 257 272 277 281 298 308 308 306 304 300 291 281 266 225 259 283 297 287 282 317 331 318
288 294 300 306 311 315 320 320 319 326 338 344 341 315 296 314 314 318 342 312 272 290 319 301 275 250 240 241 239 240 244 238 200 179 235 260 238 236 241 249 257 220 169 182 233 219 237 244 234 263 268 129 140 207 224 160 141 152 244 194 100 297 300 12 341 280 266 247 244 255 275 285 283 277 279 286 306 287 221 243 274 283 286 291 305 308 298
283 289 296 303 308 310 315 318 313 315 327 341 342 303 302 330 334 327 335 320 288 292 304 297 283 262 250 244 239 237 241 245 226 186 206 234 226 240 245 244 261 243 178 177 223 215 212 251 251 256 274 267 199 230 252 174 158 183 214 167 146 218 321 356 310 282 265 233 219 225 249 270 271 268 270 279 51 29 356 265 278 290 293 290 296 298 289
282 287 293 299 304 306 310 314 309 311 323 331 318 307 310 318 319 314 318 313 300 294 274 258 265 263 251 244 239 239 236 243 244 205 195 217 227 236 245 247 261 260 203 181 209 233 220 229 238 226 233 241 222 220 250 202 177 196 204 177 171 196 271 290 243 273 282 221 200 221 256 265 263 254 234 179 120 110 223 205 208 202 224 277 293 284 276
282 287 291 294 298 301 304 310 305 303 313 308 281 304 320 317 323 320 295 281 295 294 267 244 245 248 253 248 236 237 240 241 243 218 188 212 234 242 250 254 261 266 243 201 207 227 208 223 263 263 247 249 245 243 260 258 221 210 196 191 198 217 253 263 242 272 292 172 170 215 269 265 267 255 203 177 171 199 214 222 224 203 187 220 264 262 280
283 288 290 289 291 295 297 303 302 294 302 300 280 293 308 297 302 317 299 278 279 278 270 256 243 236 246 248 235 228 234 237 236 227 194 202 231 249 255 256 260 266 284 96 119 126 131 235 264 268 269 270 260 248 250 255 255 246 213 198 215 235 252 266 271 278 287 236 176 207 260 261 270 101 163 177 193 209 212 224 236 229 210 217 241 259 287
283 287 287 284 284 288 290 295 297 291 294 296 284 288 299 287 280 287 282 273 276 274 268 261 260 255 250 252 250 238 230 231 230 224 208 197 219 235 233 227 246 251 83 86 99 106 108 265 249 249 258 262 258 251 245 241 240 240 236 227 220 228 246 266 280 277 288 299 279 247 261 242 137 131 147 162 195 221 236 248 250 250 247 244 250 259 268
283 284 282 277 276 281 285 287 289 286 288 292 279 249 265 278 279 278 277 274 272 272 273 268 263 256 247 247 255 254 239 235 233 220 209 206 206 206 213 226 231 192 120 128 147 155 243 253 245 250 251 246 248 249 242 238 232 223 226 235 237 233 236 255 276 269 271 286 272 260 265 150 147 151 146 144 180 211 240 265 260 254 253 250 253 264 272
279 278 276 273 274 280 282 282 285 283 282 287 279 257 259 273 272 268 277 277 267 276 292 293 276 264 255 247 247 260 255 243 239 228 208 201 197 198 211 220 210 155 142 167 179 192 231 234 225 247 248 231 233 244 242 239 231 216 213 221 231 246 251 245 253 258 265 269 260 270 284 218 167 156 152 154 166 183 223 275 271 263 261 253 245 257 278
269 271 273 275 278 283 285 284 284 282 279 283 281 266 258 260 251 243 252 269 282 287 280 274 285 298 284 261 242 245 256 246 236 231 208 192 200 217 216 205 186 159 167 191 202 201 223 233 223 231 236 221 220 234 236 231 221 212 211 215 216 224 239 247 250 242 246 270 272 273 283 268 162 145 157 156 134 109 97 292 279 258 244 237 229 236 272
263 269 273 279 282 284 287 286 283 284 283 281 279 272 265 266 259 247 250 261 273 272 254 264 310 325 305 282 264 242 245 252 233 219 220 208 208 218 209 188 180 178 180 200 220 214 216 233 232 233 238 230 227 228 220 216 206 193 195 216 226 223 228 245 268 267 247 259 268 260 270 271 142 142 150 142 124 116 187 277 279 224 198 200 197 214 264
265 270 274 280 283 282 284 284 282 284 284 282 280 268 251 265 262 243 239 249 253 254 257 276 314 320 294 286 285 253 245 249 233 221 230 218 208 207 196 180 182 191 195 206 225 222 220 229 232 238 246 239 235 228 210 210 210 186 183 208 225 228 229 228 242 255 252 255 259 258 272 275 146 145 151 142 130 129 241 268 274 104 140 163 172 215 257
265 271 274 277 279 279 281 283 283 282 282 284 281 260 239 268 270 248 231 244 254 258 262 271 285 287 283 308 316 284 262 258 250 240 236 227 215 204 191 184 188 198 205 211 225 227 225 230 231 238 249 248 242 237 212 206 211 196 189 201 214 219 221 224 236 244 239 242 250 257 272 274 138 144 149 139 132 164 255 270 86 97 112 134 175 243 264
262 268 273 275 276 278 279 281 284 283 281 283 279 258 225 266 274 261 241 247 260 262 262 267 277 280 282 288 291 288 278 273 273 264 245 237 224 205 192 192 198 203 205 210 225 233 227 231 233 236 251 251 238 230 228 232 233 213 199 201 210 214 209 215 233 242 239 245 251 253 261 184 133 143 145 141 147 223 238 151 120 125 146 222 248 255 259
264 269 273 275 275 276 276 279 284 284 281 280 275 253 218 236 264 270 253 249 275 277 266 267 283 289 284 276 276 281 280 273 271 264 258 255 227 197 184 194 204 206 204 206 222 232 226 232 233 229 249 256 237 216 227 235 239 234 222 213 206 201 202 213 219 224 243 254 248 259 273 148 140 141 141 163 203 0 50 70 252 249 249 264 266 257 252
266 270 272 272 270 270 273 277 281 283 280 276 270 251 224 240 285 302 274 250 270 280 263 253 265 266 263 277 294 298 296 294 299 297 290 286 273 225 174 183 194 200 199 197 214 226 224 237 243 232 243 254 238 218 231 239 237 229 229 240 229 196 197 221 220 201 218 238 229 253 306 147 155 159 165 194 213 254 349 316 284 287 272 262 263 257 248
266 268 267 266 263 264 270 274 277 279 276 269 260 232 193 226 303 317 292 257 256 261 252 242 247 251 245 247 265 277 278 284 296 305 304 304 305 300 258 200 191 202 214 207 211 223 220 228 243 242 244 247 240 233 234 241 247 226 213 224 245 214 182 203 242 211 220 256 258 114 115 148 169 189 229 211 218 249 276 267 267 274 271 268 272 272 265
265 265 262 258 257 261 268 270 271 271 267 260 249 219 189 188 217 271 284 273 269 271 268 260 260 263 255 244 246 256 261 263 271 278 281 294 304 295 278 242 206 217 231 223 219 229 229 230 237 241 248 250 248 249 241 229 247 258 222 195 209 235 217 80 332 257 262 287 286 271 210 184 191 211 240 253 251 258 263 262 264 263 262 264 268 274 279
263 262 255 251 253 260 264 263 262 263 258 250 239 223 206 196 197 223 281 285 277 283 285 270 256 259 262 255 254 260 259 254 255 257 255 260 273 278 286 302 294 264 281 278 235 239 262 286 272 262 269 266 253 255 256 235 231 256 250 215 214 225 219 207 243 261 264 274 272 268 263 238 220 226 239 247 249 247 247 253 260 263 262 263 265 270 275
257 253 247 246 250 255 258 256 255 256 253 245 237 226 212 208 219 238 266 286 282 281 288 278 260 258 266 262 254 256 258 249 246 248 250 253 256 257 276 312 311 286 303 327 306 271 267 278 280 278 279 271 255 254 268 261 238 232 246 259 253 210 197 203 228 240 242 254 266 272 275 270 260 257 256 255 254 253 251 248 250 254 256 256 259 263 265
249 244 240 242 249 252 252 253 253 252 249 245 241 228 213 211 220 217 214 258 286 273 263 273 273 270 275 265 248 245 250 243 238 242 246 247 250 253 264 279 278 277 288 295 294 287 271 255 267 276 266 252 248 256 266 270 273 270 256 273 39 87 165 202 224 236 245 254 259 265 271 268 258 256 264 267 259 257 264 266 259 254 253 255 259 260 257
241 236 235 240 246 247 246 249 250 250 248 246 243 239 230 222 216 212 209 226 273 261 251 269 278 279 287 282 261 250 250 243 236 236 238 240 243 246 249 249 249 259 269 262 254 259 259 253 253 252 255 263 268 269 271 272 279 285 265 218 190 218 241 239 238 242 246 250 262 277 284 275 269 283 317 319 290 266 266 270 267 262 262 264 266 264 259
235 228 231 239 242 241 240 243 245 244 244 244 242 246 250 236 217 216 221 226 232 245 276 295 294 294 295 284 262 251 246 237 230 233 237 239 238 237 237 239 239 241 244 245 242 238 235 239 241 241 251 263 264 260 266 271 271 274 270 255 249 259 273 274 267 269 276 290 306 315 314 300 294 301 309 309 302 288 272 264 263 262 263 266 268 266 263
231 224 228 236 239 237 234 233 236 236 235 241 255 267 271 264 238 224 224 229 231 242 280 297 291 288 288 281 271 260 243 232 231 236 240 239 236 233 231 232 233 232 233 236 240 238 233 234 238 241 244 249 252 250 250 253 252 245 247 253 257 264 274 280 283 289 292 293 297 301 300 295 291 289 288 287 286 283 276 269 267 265 263 265 267 265 263
226 224 228 234 237 236 232 227 224 221 218 223 262 277 263 258 255 243 234 229 229 237 267 293 285 283 287 288 287 272 246 237 236 236 236 237 236 233 229 227 229 230 231 233 233 235 237 236 235 238 238 234 238 256 249 244 252 247 236 237 242 247 255 264 268 272 274 275 278 281 286 291 291 285 282 278 273 271 270 269 268 265 263 265 267 267 265
225 225 227 233 236 235 234 230 217 208 204 195 215 250 252 245 246 252 246 230 223 226 235 263 284 294 291 281 272 264 257 250 240 234 235 237 236 233 230 227 226 224 225 229 231 229 232 235 231 233 235 229 228 242 250 244 251 247 237 240 244 245 248 252 255 261 265 267 270 271 273 278 280 278 275 274 271 267 266 267 266 261 258 260 264 266 266
225 225 226 230 238 238 237 236 222 208 209 214 218 234 244 239 232 259 260 218 211 207 198 258 287 295 286 272 263 250 244 245 238 230 233 235 232 233 232 228 227 226 223 226 230 229 228 231 232 235 233 223 215 226 244 242 241 241 243 250 256 257 256 256 256 261 265 265 266 268 268 269 270 271 271 272 272 269 269 269 265 259 255 255 258 261 261
223 226 227 230 238 241 241 240 231 218 223 234 237 240 243 239 237 256 276 208 201 192 177 208 272 264 267 295 290 247 221 227 234 228 228 227 223 226 230 226 227 229 224 221 226 230 228 227 229 235 236 228 220 229 242 238 239 242 244 249 255 257 260 262 263 263 265 262 260 261 265 268 269 269 269 270 270 271 274 275 269 263 260 257 255 256 257
222 227 229 231 235 240 241 239 235 231 233 237 243 249 250 245 241 240 225 199 194 191 190 202 253 264 260 293 308 254 206 214 226 224 223 222 216 219 226 224 224 228 225 220 221 226 227 226 227 231 233 231 231 238 241 236 239 243 245 249 255 258 261 263 264 263 264 264 263 263 267 270 270 268 267 267 266 267 270 271 267 263 262 262 260 259 261
222 226 229 232 233 235 236 236 238 241 241 238 238 244 249 250 248 238 208 190 192 202 206 207 222 253 249 273 293 256 215 220 231 229 226 222 213 213 219 218 213 217 221 220 222 225 222 222 226 229 229 228 230 233 233 233 238 241 245 248 251 256 260 262 262 262 263 265 267 267 268 271 269 265 263 265 265 264 264 264 263 260 259 260 261 262 264
225 226 229 232 232 228 229 232 235 237 239 240 241 244 247 248 248 241 214 200 201 212 221 210 211 219 216 231 270 275 240 227 230 231 231 228 216 212 220 225 214 209 214 218 225 230 219 215 222 230 226 222 230 234 233 236 240 243 246 248 250 253 258 259 261 264 264 265 267 268 268 270 272 270 267 266 266 265 262 261 262 262 260 260 262 262 262
225 224 225 228 228 225 230 235 234 233 237 241 243 248 249 241 237 237 226 219 220 226 233 237 228 220 214 219 261 313 311 241 231 228 223 221 213 207 220 244 248 216 215 219 224 227 221 216 221 232 229 228 239 242 236 237 243 245 246 249 251 253 256 259 262 264 265 264 266 267 269 270 271 271 271 269 268 267 265 261 260 262 263 263 265 264 261
224 218 217 221 221 218 229 239 236 232 237 242 243 251 246 230 227 233 227 225 230 229 228 235 242 233 227 231 250 276 302 304 301 287 220 206 199 186 199 232 249 227 235 238 219 216 221 221 222 236 241 237 240 242 240 242 246 246 247 250 252 252 255 259 261 263 264 265 265 266 268 270 270 270 271 271 270 270 268 263 261 262 264 265 266 265 263
216 209 212 219 217 212 221 237 232 224 224 222 221 232 231 215 217 225 212 214 226 225 220 226 232 228 229 240 251 261 278 298 317 329 294 224 226 187 187 202 204 202 245 262 205 196 205 231 230 234 243 240 239 241 241 243 246 245 245 248 250 251 254 257 258 260 261 262 265 268 269 271 273 273 273 274 274 274 273 270 266 264 263 263 263 261 259
203 203 212 218 216 216 221 217 194 190 197 197 198 217 227 211 213 218 205 205 216 218 219 225 224 219 222 230 240 259 276 276 288 329 324 308 322 324 208 200 186 186 219 244 202 190 200 227 227 230 240 236 231 231 230 233 239 244 248 251 252 252 254 255 256 258 260 261 264 266 266 267 269 270 271 272 272 272 272 271 269 267 265 264 262 258 255
191 201 212 216 218 220 217 198 176 178 186 189 196 221 230 214 218 229 222 216 225 220 214 214 209 206 212 218 222 238 266 271 279 315 305 297 315 322 293 288 313 270 221 223 213 210 225 238 230 232 240 235 235 238 234 229 226 228 235 244 246 246 250 255 257 259 261 263 265 265 265 266 267 267 268 269 268 268 269 269 268 268 266 265 263 260 256
192 201 207 212 215 209 197 183 177 180 187 204 213 223 227 213 216 228 229 227 237 223 205 207 210 205 199 202 208 218 233 239 249 271 283 300 312 314 308 318 315 283 247 246 237 223 232 238 234 235 242 248 261 274 272 256 234 222 223 228 229 239 260 268 267 266 265 264 265 266 267 269 269 269 270 270 269 268 268 267 267 267 265 264 263 262 259
200 203 204 208 203 189 179 184 194 192 195 223 213 212 221 214 211 223 230 227 232 231 209 198 199 189 177 182 189 196 201 202 203 203 206 259 302 306 287 270 267 280 309 310 289 250 242 246 243 242 242 239 242 254 260 254 241 234 235 227 217 244 264 268 268 269 267 264 265 266 265 266 267 268 268 269 269 269 268 266 266 266 265 263 262 260 259
198 201 203 205 195 179 175 187 191 190 205 223 206 205 220 217 209 217 222 211 213 220 211 195 183 166 165 173 172 171 179 190 187 187 212 239 255 252 231 235 248 284 317 318 294 271 268 262 259 262 257 248 247 259 266 258 237 227 230 232 238 256 268 271 269 269 268 267 269 268 266 266 267 267 269 270 270 270 270 268 267 266 265 264 262 261 259
188 182 179 179 179 174 169 174 184 196 220 229 212 213 229 225 217 225 228 218 212 207 196 191 189 180 168 167 165 161 173 181 180 186 212 228 213 213 236 259 270 281 289 271 254 261 264 261 266 269 264 258 261 271 275 272 257 238 233 236 249 263 269 269 267 267 267 270 274 276 275 275 274 273 273 274 273 272 272 271 270 269 266 263 261 259 257
191 177 167 169 192 186 184 191 199 201 216 227 222 223 231 235 236 239 234 226 226 226 206 193 192 190 176 166 164 173 178 177 179 196 207 211 205 207 225 258 281 265 242 232 235 245 250 248 255 263 268 271 273 270 267 270 276 264 248 249 265 273 274 274 276 277 274 273 275 276 278 280 280 279 278 278 276 276 275 274 272 270 267 264 263 260 257
194 182 175 188 221 200 201 222 231 224 226 231 229 228 233 240 244 248 246 235 232 234 215 193 192 198 192 183 183 187 180 178 188 195 188 196 250 218 201 219 238 227 228 236 238 246 258 257 259 272 289 305 303 287 280 282 288 281 276 278 279 278 277 278 281 281 279 280 283 285 287 291 293 291 288 285 281 277 275 274 272 269 265 263 263 262 259
188 174 177 193 217 209 211 224 235 239 240 240 236 234 236 236 236 243 247 236 218 216 212 194 188 202 201 192 197 207 191 184 193 193 183 191 231 217 195 217 225 213 222 240 240 240 253 259 266 279 293 301 298 288 279 270 272 282 293 297 293 290 291 290 287 287 292 298 298 294 291 291 289 287 285 284 281 278 275 272 270 268 266 263 261 260 259
199 194 205 215 228 237 231 229 235 243 244 244 244 242 241 239 238 240 242 224 196 201 219 207 186 180 200 192 191 209 204 193 195 196 190 199 217 212 204 223 227 219 223 236 241 254 270 276 280 284 284 282 279 270 253 244 255 288 326 325 313 307 303 297 292 292 298 301 300 296 292 289 286 284 282 281 280 279 277 273 269 266 265 263 260 258 257
214 223 231 220 220 236 239 234 235 241 243 244 243 237 236 242 245 247 248 236 213 214 223 208 185 181 208 209 195 203 204 197 197 208 205 204 210 219 223 227 229 230 232 236 249 264 273 285 312 335 337 322 298 272 253 246 258 300 316 304 297 292 291 290 289 292 295 297 296 295 292 288 285 283 281 280 279 279 278 276 273 269 268 266 262 258 256
212 227 237 231 229 238 244 243 248 258 256 251 248 242 237 238 240 241 246 245 236 229 225 213 201 199 213 218 216 213 192 183 191 217 222 215 207 215 228 234 237 245 252 252 253 257 261 272 325 351 346 341 331 308 276 254 251 262 273 284 287 288 289 290 290 292 295 297 297 296 295 292 290 288 286 286 285 282 279 277 275 271 270 269 265 258 255
212 221 233 237 239 243 247 252 263 279 279 270 272 282 281 265 246 234 231 229 228 231 231 224 218 217 218 219 223 224 205 197 209 220 224 224 221 221 230 238 239 242 249 254 257 268 303 346 358 348 323 331 340 335 317 290 271 266 272 282 287 288 290 291 290 291 293 295 295 296 296 296 295 292 289 287 286 284 281 280 278 275 274 273 267 258 254
Height
1544 1544 1544 1543 1542 1542 1540 1539 1538 1537 1535 1534 1532 1531 1530 1529 1527 1525 1526 1526 1527 1529 1527 1524 1521 1518 1514 1512 1511 1513 1514 1512 1512 1513 1515 1514 1513 1514 1516 1517 1519 1521 1521 1524 1525 1525 1525 1522 1519 1519 1519 1521 1525 1526 1527 1527 1524 1525 1526 1526 1529 1531 1531 1535 1532 1522 1520 1524 1523 1525 1526 1527 1530 1532 1531 1534 1537 1538 1543 1545 1543 1544 1541 1533 1537 1544 1538
1544 1543 1543 1543 1542 1541 1540 1539 1539 1537 1536 1535 1533 1532 1531 1528 1526 1525 1526 1526 1526 1528 1527 1524 1521 1515 1512 1512 1513 1513 1514 1512 1512 1512 1513 1513 1513 1515 1516 1516 1520 1521 1521 1524 1525 1527 1530 1527 1522 1520 1520 1523 1526 1526 1527 1528 1525 1526 1531 1530 1532 1534 1532 1535 1537 1531 1530 1536 1536 1532 1531 1529 1530 1532 1534 1536 1537 1538 1541 1539 1539 1544 1542 1538 1546 1547 1534
1543 1543 1543 1542 1542 1541 1540 1539 1539 1538 1537 1536 1534 1533 1531 1529 1527 1525 1525 1526 1526 1526 1523 1521 1519 1516 1514 1515 1515 1515 1514 1514 1513 1513 1511 1511 1512 1515 1515 1515 1518 1520 1522 1525 1525 1526 1530 1529 1525 1523 1522 1523 1526 1526 1527 1529 1527 1529 1532 1531 1532 1535 1534 1534 1541 1545 1548 1551 1549 1544 1538 1532 1530 1533 1535 1536 1537 1540 1544 1543 1544 1548 1546 1541 1545 1545 1533
1543 1542 1542 1542 1541 1541 1540 1539 1539 1538 1538 1537 1535 1534 1532 1530 1527 1524 1523 1524 1524 1524 1521 1521 1521 1519 1517 1517 1516 1516 1516 1514 1515 1515 1514 1513 1513 1515 1515 1515 1518 1522 1524 1527 1528 1526 1527 1528 1526 1524 1524 1523 1525 1527 1527 1528 1530 1531 1533 1532 1533 1535 1534 1532 1537 1543 1544 1545 1543 1538 1536 1536 1538 1539 1537 1537 1539 1539 1543 1548 1549 1550 1551 1545 1541 1541 1539
1542 1542 1542 1542 1541 1541 1540 1539 1539 1538 1537 1537 1535 1534 1533 1532 1527 1523 1522 1523 1523 1522 1521 1520 1520 1518 1518 1518 1516 1516 1516 1514 1515 1517 1516 1516 1516 1516 1516 1515 1519 1524 1526 1528 1530 1527 1525 1527 1527 1525 1524 1523 1525 1527 1527 1528 1531 1532 1533 1533 1534 1536 1536 1532 1533 1536 1535 1535 1536 1534 1535 1538 1540 1540 1540 1540 1540 1540 1544 1551 1549 1548 1554 1550 1537 1536 1542
1542 1541 1541 1541 1541 1540 1540 1539 1539 1538 1537 1537 1536 1534 1533 1531 1527 1523 1524 1524 1522 1520 1520 1518 1516 1515 1516 1516 1515 1517 1517 1515 1517 1519 1517 1517 1517 1518 1519 1518 1518 1521 1524 1528 1530 1529 1527 1528 1528 1526 1524 1524 1527 1529 1527 1528 1530 1531 1532 1532 1532 1537 1538 1531 1531 1535 1532 1531 1533 1533 1534 1536 1536 1538 1539 1538 1539 1541 1546 1550 1546 1546 1553 1551 1540 1539 1542
1541 1541 1541 1541 1540 1540 1539 1539 1538 1538 1537 1537 1536 1535 1533 1531 1529 1526 1526 1525 1521 1519 1519 1518 1516 1514 1514 1515 1515 1517 1517 1516 1516 1517 1519 1519 1518 1519 1522 1522 1519 1517 1520 1526 1529 1530 1532 1532 1530 1527 1525 1525 1528 1530 1529 1528 1529 1531 1531 1531 1532 1537 1538 1531 1531 1534 1532 1530 1532 1531 1533 1536 1536 1536 1536 1535 1537 1539 1542 1545 1544 1544 1548 1546 1542 1542 1539
1540 1540 1540 1540 1539 1539 1538 1538 1538 1537 1537 1537 1536 1536 1535 1534 1533 1530 1528 1526 1522 1520 1520 1519 1518 1515 1514 1516 1515 1515 1517 1517 1514 1514 1519 1522 1520 1519 1521 1521 1518 1515 1517 1523 1527 1526 1527 1530 1529 1528 1528 1528 1528 1529 1529 1527 1529 1530 1531 1531 1533 1538 1539 1533 1532 1536 1533 1528 1529 1530 1532 1534 1536 1535 1534 1534 1538 1541 1543 1545 1545 1546 1548 1544 1543 1544 1538
1538 1538 1539 1538 1539 1538 1538 1538 1537 1537 1537 1536 1536 1537 1536 1535 1535 1534 1533 1529 1524 1522 1520 1519 1519 1518 1516 1516 1515 1514 1516 1515 1514 1514 1516 1519 1520 1519 1519 1519 1517 1515 1515 1520 1524 1522 1523 1526 1526 1525 1527 1527 1526 1526 1525 1524 1528 1530 1531 1532 1534 1537 1538 1532 1533 1541 1536 1525 1526 1530 1529 1531 1535 1535 1534 1536 1540 1543 1544 1544 1544 1546 1548 1547 1547 1547 1538
1537 1537 1537 1537 1538 1538 1537 1537 1536 1536 1536 1536 1536 1536 1535 1535 1535 1534 1534 1531 1527 1524 1520 1517 1519 1519 1515 1514 1513 1514 1514 1513 1513 1516 1516 1517 1518 1518 1517 1518 1518 1518 1518 1519 1521 1522 1523 1525 1525 1525 1525 1524 1523 1524 1523 1523 1526 1528 1529 1532 1532 1534 1536 1533 1533 1540 1535 1525 1526 1528 1529 1537 1540 1532 1529 1533 1537 1539 1540 1540 1539 1539 1543 1547 1547 1542 1532
1536 1536 1536 1536 1537 1537 1537 1536 1536 1535 1535 1535 1536 1536 1535 1535 1535 1534 1534 1532 1528 1524 1520 1517 1517 1516 1513 1511 1511 1511 1512 1512 1512 1516 1517 1516 1518 1518 1518 1519 1520 1521 1520 1520 1521 1523 1524 1526 1527 1526 1525 1524 1522 1523 1523 1523 1524 1525 1527 1530 1532 1532 1534 1533 1531 1536 1534 1525 1521 1527 1538 1546 1539 1524 1521 1526 1530 1534 1537 1537 1535 1533 1534 1537 1536 1531 1528
1535 1535 1535 1535 1535 1536 1536 1536 1535 1535 1534 1534 1535 1536 1535 1534 1535 1535 1535 1533 1528 1524 1521 1517 1515 1513 1512 1511 1509 1508 1510 1511 1511 1513 1515 1516 1518 1519 1519 1520 1522 1522 1521 1521 1523 1525 1526 1527 1527 1526 1525 1524 1523 1522 1522 1522 1523 1524 1524 1527 1530 1532 1534 1533 1531 1534 1534 1525 1525 1540 1548 1540 1526 1519 1519 1522 1524 1526 1530 1530 1529 1528 1528 1528 1528 1527 1526
1534 1534 1534 1534 1534 1534 1535 1535 1534 1534 1533 1533 1534 1534 1534 1534 1534 1535 1534 1532 1528 1524 1521 1517 1513 1512 1511 1509 1508 1508 1507 1509 1510 1511 1513 1515 1517 1519 1520 1521 1522 1522 1522 1524 1524 1526 1527 1527 1527 1526 1524 1522 1522 1521 1521 1521 1522 1523 1524 1525 1527 1530 1532 1534 1532 1533 1534 1532 1537 1545 1540 1524 1517 1520 1520 1521 1523 1525 1529 1531 1527 1524 1524 1524 1524 1524 1523
1532 1532 1533 1533 1533 1533 1533 1533 1533 1533 1532 1532 1532 1533 1533 1533 1534 1534 1533 1532 1528 1524 1522 1519 1513 1510 1509 1508 1508 1510 1509 1509 1510 1511 1512 1515 1517 1519 1521 1521 1521 1522 1523 1525 1525 1527 1528 1528 1529 1530 1526 1525 1528 1527 1522 1520 1520 1521 1523 1524 1525 1528 1530 1533 1535 1534 1534 1537 1537 1532 1526 1522 1522 1522 1520 1521 1523 1523 1528 1533 1527 1520 1520 1520 1520 1521 1522
1531 1531 1531 1532 1532 1532 1532 1532 1532 1532 1531 1531 1531 1531 1532 1532 1532 1533 1533 1532 1529 1526 1524 1521 1516 1513 1510 1508 1509 1511 1512 1510 1510 1511 1512 1515 1517 1519 1520 1520 1521 1523 1524 1525 1525 1526 1527 1529 1534 1537 1534 1531 1534 1531 1523 1520 1519 1518 1521 1523 1524 1527 1528 1531 1536 1534 1531 1536 1538 1535 1535 1533 1524 1520 1518 1518 1521 1520 1523 1530 1526 1517 1516 1518 1518 1519 1521
1530 1530 1530 1531 1531 1531 1531 1531 1531 1531 1530 1530 1530 1530 1531 1530 1531 1532 1532 1532 1531 1527 1521 1519 1519 1517 1515 1512 1510 1512 1513 1511 1509 1512 1514 1515 1517 1518 1518 1519 1521 1523 1523 1524 1524 1524 1527 1531 1533 1536 1533 1528 1528 1528 1524 1522 1521 1519 1520 1523 1524 1526 1526 1528 1534 1535 1532 1537 1542 1541 1539 1530 1518 1515 1516 1517 1521 1520 1522 1531 1527 1514 1511 1515 1517 1519 1520
1529 1529 1529 1529 1530 1530 1529 1529 1529 1529 1529 1529 1529 1529 1529 1528 1529 1530 1530 1531 1530 1525 1518 1518 1520 1519 1517 1515 1513 1513 1513 1510 1509 1512 1514 1514 1514 1516 1517 1519 1521 1522 1523 1523 1523 1523 1527 1530 1530 1531 1528 1520 1519 1523 1522 1522 1525 1524 1524 1526 1526 1528 1528 1529 1536 1538 1535 1537 1539 1534 1528 1519 1511 1512 1515 1517 1519 1520 1528 1538 1529 1512 1510 1515 1516 1518 1520
1528 1528 1528 1528 1529 1528 1528 1528 1528 1528 1528 1528 1528 1528 1528 1527 1527 1528 1529 1529 1528 1523 1518 1519 1521 1519 1517 1517 1516 1514 1513 1510 1509 1510 1509 1509 1510 1512 1516 1518 1520 1522 1522 1522 1523 1524 1527 1528 1528 1529 1526 1516 1512 1517 1518 1519 1523 1524 1524 1527 1529 1529 1529 1531 1534 1535 1533 1535 1537 1532 1522 1512 1507 1510 1514 1516 1519 1524 1533 1535 1522 1511 1514 1516 1516 1518 1519
1527 1527 1527 1527 1527 1527 1527 1527 1526 1526 1527 1527 1527 1527 1528 1526 1526 1527 1528 1528 1527 1522 1519 1520 1520 1518 1517 1518 1517 1516 1515 1513 1512 1511 1509 1508 1507 1508 1513 1517 1518 1519 1520 1520 1522 1523 1526 1526 1522 1522 1522 1516 1509 1512 1515 1515 1517 1516 1517 1524 1528 1529 1530 1531 1531 1532 1530 1527 1529 1529 1521 1510 1506 1510 1513 1515 1521 1526 1526 1519 1513 1513 1516 1515 1516 1518 1517
1526 1526 1526 1526 1526 1526 1526 1525 1525 1525 1525 1525 1525 1526 1526 1525 1525 1526 1526 1527 1526 1521 1518 1519 1519 1517 1517 1518 1517 1516 1516 1515 1514 1512 1510 1508 1505 1507 1515 1519 1517 1517 1518 1521 1523 1522 1523 1524 1520 1517 1519 1515 1507 1508 1512 1512 1510 1508 1510 1515 1518 1520 1527 1530 1527 1527 1528 1527 1529 1531 1524 1511 1507 1511 1515 1516 1518 1517 1514 1512 1513 1514 1514 1514 1516 1516 1516
1525 1525 1525 1525 1525 1525 1524 1524 1524 1524 1524 1524 1524 1525 1525 1525 1525 1525 1525 1525 1525 1521 1517 1516 1517 1515 1515 1515 1516 1516 1516 1516 1516 1514 1512 1508 1505 1507 1513 1515 1514 1514 1515 1518 1521 1520 1518 1519 1516 1513 1513 1509 1505 1507 1511 1511 1509 1504 1502 1507 1508 1508 1516 1523 1519 1517 1523 1527 1525 1522 1514 1506 1506 1510 1512 1512 1512 1510 1510 1513 1513 1512 1513 1514 1514 1514 1514
1524 1523 1523 1524 1523 1523 1523 1523 1523 1523 1523 1523 1523 1523 1524 1524 1525 1525 1524 1524 1524 1520 1515 1514 1514 1514 1514 1514 1514 1515 1515 1516 1516 1516 1514 1511 1507 1506 1508 1508 1508 1510 1511 1512 1515 1516 1515 1514 1513 1511 1510 1507 1505 1506 1507 1510 1512 1505 1499 1505 1508 1503 1504 1511 1510 1508 1510 1512 1509 1506 1504 1505 1507 1508 1507 1508 1509 1509 1510 1512 1511 1512 1513 1512 1512 1513 1513
1522 1522 1522 1522 1522 1522 1522 1521 1521 1521 1521 1522 1522 1522 1522 1522 1523 1524 1524 1523 1522 1518 1515 1514 1514 1512 1512 1512 1513 1514 1514 1515 1515 1515 1515 1513 1509 1506 1505 1505 1505 1506 1507 1508 1510 1510 1510 1510 1508 1508 1508 1505 1503 1504 1504 1506 1508 1503 1498 1501 1503 1500 1500 1504 1506 1503 1503 1502 1500 1501 1503 1505 1506 1507 1507 1508 1509 1509 1509 1510 1510 1511 1511 1511 1511 1512 1511
1521 1521 1521 1521 1521 1521 1521 1520 1520 1520 1520 1520 1521 1520 1521 1521 1522 1522 1523 1523 1522 1518 1514 1512 1511 1510 1510 1511 1512 1513 1513 1512 1513 1513 1513 1513 1511 1509 1507 1506 1506 1506 1506 1507 1507 1507 1508 1507 1505 1506 1507 1503 1501 1503 1505 1504 1503 1501 1499 1499 1498 1497 1499 1503 1504 1505 1507 1506 1501 1499 1501 1503 1503 1505 1505 1505 1506 1507 1508 1508 1509 1509 1509 1510 1510 1510 1511
1519 1519 1519 1520 1520 1520 1519 1519 1519 1519 1518 1519 1519 1519 1520 1521 1521 1521 1522 1522 1521 1519 1515 1510 1507 1508 1509 1509 1510 1511 1510 1510 1510 1511 1510 1510 1511 1510 1509 1508 1508 1508 1507 1508 1508 1507 1509 1508 1506 1507 1507 1504 1501 1502 1504 1503 1500 1498 1499 1499 1497 1496 1497 1501 1502 1504 1505 1505 1501 1499 1501 1502 1502 1503 1503 1503 1504 1504 1504 1505 1506 1507 1507 1508 1508 1509 1509
1517 1518 1518 1518 1518 1518 1518 1518 1518 1518 1517 1517 1517 1517 1518 1518 1519 1519 1520 1520 1520 1519 1515 1509 1506 1506 1508 1507 1507 1507 1508 1508 1508 1509 1509 1509 1509 1509 1509 1509 1509 1509 1508 1509 1509 1508 1508 1508 1508 1508 1507 1505 1503 1502 1502 1501 1499 1497 1498 1499 1499 1499 1499 1500 1501 1502 1502 1501 1500 1500 1501 1500 1499 1500 1501 1501 1501 1502 1502 1503 1504 1504 1505 1506 1506 1507 1507
1515 1516 1517 1517 1517 1517 1517 1517 1517 1517 1516 1516 1516 1516 1516 1517 1518 1518 1518 1519 1519 1517 1513 1508 1505 1505 1505 1504 1504 1505 1505 1506 1506 1507 1507 1507 1508 1509 1509 1509 1509 1510 1509 1509 1509 1508 1509 1508 1507 1507 1507 1504 1503 1502 1501 1500 1499 1498 1498 1497 1498 1500 1500 1498 1500 1503 1503 1501 1499 1500 1501 1500 1498 1498 1499 1500 1500 1501 1502 1502 1503 1503 1504 1504 1504 1504 1504
1514 1515 1516 1516 1516 1516 1516 1516 1516 1516 1516 1515 1515 1515 1515 1515 1516 1517 1517 1517 1517 1516 1513 1510 1507 1505 1503 1501 1502 1503 1503 1503 1504 1505 1505 1506 1506 1507 1507 1508 1508 1509 1509 1509 1508 1507 1507 1507 1507 1506 1505 1505 1504 1502 1501 1501 1502 1501 1499 1497 1496 1498 1498 1497 1499 1501 1500 1498 1498 1499 1500 1499 1498 1498 1499 1500 1500 1500 1501 1501 1502 1502 1502 1502 1502 1502 1502
1514 1515 1515 1516 1516 1516 1516 1516 1515 1515 1515 1515 1514 1515 1515 1514 1515 1515 1515 1515 1515 1515 1514 1512 1509 1505 1503 1502 1501 1501 1501 1502 1502 1503 1503 1504 1504 1505 1505 1506 1506 1507 1507 1507 1507 1506 1505 1505 1505 1504 1503 1503 1504 1503 1502 1503 1503 1501 1499 1497 1497 1497 1497 1497 1499 1499 1498 1498 1498 1499 1499 1498 1498 1499 1499 1499 1499 1500 1500 1500 1500 1500 1500 1500 1500 1500 1499
1513 1514 1514 1515 1515 1515 1515 1515 1515 1515 1515 1515 1515 1515 1515 1514 1514 1513 1513 1514 1514 1514 1514 1514 1510 1505 1502 1500 1499 1499 1499 1500 1501 1501 1501 1502 1502 1502 1503 1503 1504 1505 1505 1505 1504 1504 1503 1503 1503 1502 1502 1502 1502 1502 1501 1501 1499 1496 1494 1494 1495 1496 1497 1498 1498 1498 1498 1498 1498 1498 1498 1498 1498 1498 1497 1497 1498 1498 1497 1497 1498 1498 1498 1498 1498 1497 1497
1512 1512 1513 1514 1514 1514 1514 1514 1514 1514 1515 1515 1515 1515 1515 1513 1512 1512 1512 1512 1512 1513 1513 1513 1511 1506 1502 1499 1498 1498 1498 1498 1499 1499 1499 1500 1500 1500 1501 1501 1501 1502 1502 1502 1502 1501 1501 1500 1500 1499 1499 1499 1500 1499 1498 1498 1497 1493 1491 1491 1492 1493 1494 1495 1496 1497 1497 1497 1497 1497 1497 1497 1497 1496 1495 1495 1495 1495 1495 1495 1495 1495 1495 1495 1495 1495 1495
1510 1511 1511 1512 1513 1513 1514 1514 1514 1514 1514 1514 1514 1514 1513 1512 1512 1511 1511 1511 1511 1512 1513 1512 1511 1508 1503 1497 1495 1495 1496 1496 1496 1497 1497 1497 1498 1498 1498 1498 1499 1498 1499 1499 1499 1498 1497 1498 1497 1496 1496 1496 1496 1496 1494 1494 1493 1492 1490 1490 1490 1491 1492 1493 1493 1494 1494 1495 1495 1494 1494 1494 1494 1493 1492 1492 1492 1492 1492 1492 1492 1492 1492 1492 1492 1492 1492
1509 1509 1510 1511 1511 1512 1513 1513 1513 1513 1513 1513 1513 1512 1512 1512 1511 1511 1511 1511 1511 1511 1512 1512 1512 1509 1503 1496 1492 1491 1492 1493 1494 1494 1494 1495 1495 1496 1495 1496 1496 1496 1496 1496 1495 1494 1495 1495 1495 1494 1494 1493 1493 1492 1490 1488 1488 1488 1488 1488 1489 1489 1490 1490 1491 1491 1491 1492 1492 1491 1491 1491 1491 1490 1490 1490 1490 1490 1490 1490 1490 1489 1489 1489 1489 1489 1489
1507 1508 1509 1509 1510 1511 1512 1512 1512 1512 1512 1512 1512 1511 1511 1511 1510 1510 1510 1510 1510 1511 1511 1510 1510 1508 1503 1499 1494 1491 1490 1491 1491 1492 1492 1492 1493 1493 1493 1493 1494 1493 1492 1492 1492 1492 1492 1492 1492 1492 1491 1490 1490 1489 1486 1484 1484 1486 1486 1486 1487 1488 1488 1488 1488 1488 1488 1488 1488 1488 1487 1487 1487 1487 1487 1487 1487 1488 1488 1488 1487 1487 1487 1487 1487 1487 1487
1505 1507 1508 1508 1509 1510 1510 1510 1511 1511 1510 1510 1510 1509 1509 1509 1509 1509 1509 1509 1510 1510 1509 1508 1508 1507 1504 1502 1498 1493 1490 1490 1490 1490 1491 1491 1491 1491 1491 1491 1491 1491 1490 1490 1490 1489 1488 1489 1490 1489 1487 1487 1486 1483 1481 1481 1482 1483 1483 1484 1484 1485 1485 1484 1484 1485 1484 1485 1485 1485 1485 1485 1484 1484 1484 1484 1484 1485 1485 1485 1485 1484 1484 1484 1484 1484 1485
1503 1505 1507 1507 1508 1508 1508 1508 1509 1509 1508 1508 1508 1508 1508 1508 1508 1508 1508 1508 1508 1508 1506 1506 1505 1504 1503 1503 1499 1494 1491 1490 1489 1490 1491 1490 1489 1488 1489 1488 1487 1487 1488 1488 1487 1485 1485 1487 1487 1485 1484 1483 1479 1476 1477 1479 1479 1479 1480 1481 1481 1482 1482 1482 1482 1482 1482 1482 1482 1482 1482 1482 1481 1481 1481 1481 1481 1481 1481 1481 1481 1481 1481 1481 1481 1482 1482
1502 1504 1505 1506 1507 1507 1506 1506 1506 1506 1507 1507 1507 1507 1507 1507 1508 1508 1507 1507 1506 1506 1505 1504 1501 1499 1500 1501 1498 1494 1492 1490 1489 1488 1488 1488 1487 1487 1487 1486 1485 1484 1484 1484 1483 1482 1483 1484 1483 1481 1479 1476 1474 1473 1475 1477 1476 1476 1477 1478 1478 1479 1479 1479 1479 1479 1479 1479 1479 1479 1479 1479 1479 1478 1478 1478 1478 1478 1478 1478 1478 1479 1478 1478 1478 1478 1478
1500 1502 1504 1505 1505 1505 1505 1504 1503 1504 1505 1506 1506 1507 1507 1507 1507 1507 1506 1506 1505 1503 1503 1502 1499 1497 1498 1497 1495 1494 1493 1491 1489 1487 1485 1485 1485 1486 1486 1486 1485 1483 1482 1480 1478 1479 1481 1480 1477 1475 1473 1471 1471 1472 1473 1473 1473 1474 1474 1475 1476 1476 1476 1476 1477 1477 1476 1476 1476 1476 1476 1476 1476 1476 1476 1475 1475 1475 1475 1475 1475 1476 1476 1476 1476 1475 1475
1498 1500 1501 1502 1502 1502 1502 1502 1502 1504 1504 1505 1506 1506 1506 1506 1506 1505 1503 1503 1502 1500 1499 1497 1495 1495 1495 1494 1493 1494 1494 1492 1491 1490 1487 1485 1485 1485 1485 1484 1483 1483 1484 1480 1475 1474 1477 1476 1474 1472 1470 1467 1467 1469 1470 1470 1471 1471 1471 1472 1473 1473 1473 1474 1474 1474 1474 1474 1474 1474 1474 1474 1474 1474 1474 1473 1473 1473 1473 1473 1473 1473 1473 1473 1472 1472 1472
1496 1497 1499 1499 1499 1500 1500 1501 1502 1503 1503 1504 1505 1506 1505 1504 1503 1501 1499 1498 1497 1495 1493 1491 1490 1491 1493 1492 1492 1493 1493 1493 1493 1493 1492 1489 1485 1484 1484 1482 1480 1481 1483 1479 1472 1469 1471 1472 1471 1469 1466 1463 1463 1465 1466 1466 1466 1467 1468 1469 1469 1470 1470 1471 1471 1472 1472 1472 1472 1472 1472 1472 1472 1472 1472 1471 1471 1471 1471 1470 1470 1470 1469 1469 1469 1468 1469
1492 1495 1496 1497 1497 1498 1500 1501 1501 1502 1503 1504 1504 1504 1503 1501 1500 1497 1495 1494 1492 1488 1486 1485 1486 1487 1488 1489 1490 1491 1492 1492 1493 1493 1493 1491 1488 1486 1486 1483 1479 1479 1479 1474 1468 1465 1466 1467 1466 1463 1459 1458 1459 1460 1460 1461 1462 1463 1465 1466 1466 1467 1468 1468 1469 1470 1470 1470 1470 1470 1470 1470 1470 1469 1469 1469 1469 1468 1468 1468 1467 1467 1466 1466 1465 1465 1465
1491 1493 1495 1496 1496 1497 1499 1500 1500 1501 1502 1503 1502 1501 1498 1496 1495 1493 1491 1489 1486 1482 1480 1480 1481 1481 1482 1484 1487 1489 1490 1492 1492 1493 1494 1493 1490 1488 1488 1485 1484 1482 1477 1469 1464 1464 1465 1463 1461 1458 1455 1456 1458 1457 1457 1458 1459 1460 1461 1462 1463 1465 1467 1468 1468 1468 1468 1468 1468 1467 1467 1467 1467 1467 1467 1467 1466 1466 1465 1465 1464 1464 1463 1463 1463 1463 1463
1491 1493 1494 1495 1496 1497 1498 1499 1499 1500 1500 1499 1499 1498 1494 1490 1488 1487 1485 1483 1480 1478 1477 1477 1477 1478 1480 1482 1484 1486 1489 1490 1491 1492 1493 1493 1490 1489 1489 1489 1487 1483 1476 1469 1466 1467 1466 1461 1457 1454 1453 1455 1457 1456 1456 1456 1456 1457 1459 1461 1462 1464 1466 1466 1466 1466 1466 1466 1465 1465 1465 1465 1465 1465 1465 1465 1464 1463 1463 1462 1461 1461 1461 1460 1460 1460 1460
1491 1492 1494 1495 1495 1496 1497 1497 1496 1497 1496 1494 1493 1492 1489 1485 1483 1482 1480 1477 1476 1475 1475 1476 1477 1478 1479 1481 1482 1485 1487 1488 1490 1491 1492 1491 1490 1490 1491 1490 1486 1480 1476 1474 1473 1470 1465 1459 1455 1453 1453 1453 1454 1454 1454 1454 1454 1456 1458 1460 1461 1463 1463 1464 1464 1464 1464 1464 1463 1463 1463 1462 1462 1462 1462 1461 1461 1460 1460 1459 1459 1459 1458 1458 1457 1457 1457
1489 1490 1492 1493 1494 1495 1496 1494 1492 1492 1490 1486 1484 1484 1482 1479 1477 1475 1474 1474 1473 1472 1473 1475 1476 1477 1479 1480 1482 1484 1485 1487 1489 1490 1490 1489 1490 1490 1489 1485 1481 1477 1478 1478 1476 1471 1466 1460 1455 1453 1452 1452 1452 1453 1453 1453 1453 1454 1456 1458 1459 1460 1461 1462 1462 1462 1461 1461 1461 1461 1461 1460 1459 1459 1459 1458 1458 1458 1457 1456 1457 1456 1456 1455 1455 1454 1454
1486 1487 1489 1490 1491 1491 1491 1488 1486 1485 1483 1480 1478 1477 1475 1473 1472 1470 1470 1471 1471 1471 1471 1473 1474 1475 1477 1479 1481 1483 1484 1485 1487 1487 1486 1487 1489 1487 1484 1483 1482 1481 1480 1478 1474 1469 1464 1459 1455 1453 1452 1451 1451 1453 1453 1452 1453 1454 1455 1456 1458 1459 1459 1460 1460 1459 1459 1460 1459 1459 1459 1458 1457 1457 1456 1456 1455 1455 1454 1454 1454 1454 1453 1453 1452 1452 1452
1483 1484 1486 1488 1488 1487 1485 1481 1478 1477 1476 1474 1473 1472 1471 1471 1470 1469 1469 1469 1469 1469 1470 1471 1472 1474 1475 1477 1478 1479 1480 1481 1483 1484 1484 1486 1486 1482 1480 1481 1482 1480 1477 1474 1469 1464 1458 1455 1453 1452 1451 1450 1451 1452 1452 1452 1453 1454 1454 1455 1456 1457 1458 1458 1458 1458 1458 1458 1457 1457 1456 1456 1456 1455 1454 1454 1453 1452 1452 1452 1451 1451 1451 1451 1450 1450 1450
1481 1482 1483 1484 1483 1479 1477 1475 1474 1472 1471 1470 1469 1469 1468 1468 1468 1467 1466 1467 1467 1469 1470 1471 1472 1474 1475 1475 1476 1477 1478 1479 1480 1480 1480 1480 1481 1480 1479 1478 1476 1471 1468 1466 1463 1458 1454 1452 1451 1450 1450 1450 1451 1452 1452 1452 1453 1454 1454 1455 1456 1457 1457 1458 1458 1458 1457 1457 1456 1456 1456 1455 1455 1455 1453 1452 1451 1450 1449 1449 1449 1449 1449 1448 1448 1447 1447
1480 1480 1479 1479 1476 1472 1471 1472 1472 1470 1468 1467 1467 1467 1466 1465 1464 1463 1463 1464 1466 1468 1469 1470 1472 1474 1474 1474 1475 1476 1476 1476 1476 1476 1476 1477 1477 1475 1474 1472 1469 1464 1460 1458 1455 1453 1452 1451 1450 1450 1450 1450 1451 1451 1452 1452 1453 1454 1455 1455 1456 1457 1457 1457 1457 1457 1457 1456 1456 1456 1455 1454 1454 1453 1451 1450 1449 1447 1447 1447 1446 1446 1446 1445 1445 1445 1444
1478 1477 1475 1473 1471 1469 1468 1469 1469 1467 1465 1465 1464 1464 1465 1464 1462 1462 1462 1463 1464 1466 1468 1469 1471 1473 1473 1473 1474 1474 1472 1471 1472 1473 1473 1472 1470 1468 1466 1465 1462 1458 1455 1453 1452 1451 1451 1450 1450 1450 1450 1450 1450 1451 1451 1451 1452 1454 1455 1456 1457 1457 1457 1457 1456 1456 1456 1455 1455 1454 1453 1452 1451 1450 1448 1447 1446 1445 1444 1444 1443 1443 1442 1442 1441 1441 1441
1475 1474 1471 1469 1468 1467 1467 1467 1466 1465 1464 1463 1462 1461 1462 1462 1462 1462 1463 1463 1464 1465 1466 1467 1468 1470 1471 1472 1471 1470 1467 1466 1468 1468 1466 1463 1461 1462 1462 1460 1456 1454 1452 1451 1451 1451 1451 1450 1450 1451 1451 1451 1451 1451 1450 1451 1452 1453 1454 1455 1456 1456 1456 1456 1455 1454 1454 1454 1453 1452 1451 1450 1449 1447 1446 1445 1443 1442 1441 1441 1440 1440 1439 1438 1438 1437 1437
1470 1468 1467 1467 1467 1467 1467 1466 1465 1465 1465 1463 1462 1461 1460 1460 1461 1461 1462 1463 1463 1464 1465 1465 1466 1467 1467 1467 1465 1463 1463 1463 1463 1462 1459 1456 1455 1455 1455 1454 1451 1450 1450 1449 1448 1449 1449 1449 1450 1450 1451 1451 1451 1451 1451 1451 1452 1453 1454 1455 1455 1456 1455 1455 1454 1453 1453 1452 1451 1450 1449 1448 1446 1445 1444 1442 1441 1440 1439 1438 1438 1437 1436 1435 1435 1434 1434